Location: Corte Torriana
(45.0667°N, 11.0667°E)
Time: 11:17:57
(UTC+00:00)

Daily predictions for brighter satellites

Satellite Brightness Start Highest point End
(mag) Time Altitude Azimuth Time Altitude Azimuth Time Altitude Azimuth
Envisat 4.0 15:59:51 10° ESE 16:03:48 23° ENE 16:07:46 10° NNE
Helios 1A Rocket 3.1 16:00:35 10° SSE 16:04:41 82° WSW 16:08:48 10° NNW
SL-16 R/B 4.4 16:03:31 10° W 16:07:19 18° NW 16:11:08 10° N
Cosmos 2219 Rocket 2.3 16:01:47 10° SSW 16:07:23 85° WNW 16:13:05 10° NNE
COBE Rocket 4.5 16:04:26 10° NNE 16:08:39 34° E 16:12:54 10° SSE
YAOGAN 6 4.4 16:09:01 10° E 16:10:19 12° ENE 16:11:38 10° NE
ATLAS 3B R/B 3.7 16:04:40 10° NW 16:11:10 52° WSW 16:17:48 10° SSE
IRS-1C Rocket 4.2 16:06:03 10° SE 16:11:10 54° ENE 16:16:18 10° N
USA 267 3.3 16:07:09 10° ESE 16:13:41 77° NE 16:20:14 10° NW
Cosmos 1340 4.0 16:10:27 10° NNW 16:14:04 44° W 16:17:39 10° SSW
Cosmos 1733 Rocket 3.1 16:10:04 10° N 16:14:24 58° E 16:18:43 10° SSE
Exosat Rocket 3.7 16:09:23 10° S 16:14:38 54° ESE 16:19:31 10° NNE
Cosmos 1992 Rocket 4.2 16:10:30 10° NNW 16:15:36 50° ENE 16:20:40 10° SE
Meteor 1-11 Rocket 3.9 16:10:22 10° N 16:16:18 60° ENE 16:22:10 10° SSE
CZ-4B R/B 3.5 16:13:45 10° N 16:16:48 28° WNW 16:19:49 10° SW
Cosmos 1500 3.3 16:14:35 10° N 16:18:18 52° E 16:21:57 10° SSE
NOSS 3-4 (A) 4.3 16:12:35 10° WSW 16:18:23 46° NW 16:24:35 10° NNE
NOSS 3-4 (C) 4.3 16:12:40 10° WSW 16:18:29 46° NW 16:24:41 10° NNE
Meteor 1-27 Rocket 4.0 16:13:13 10° SSE 16:18:43 51° E 16:24:22 10° NNE
Cosmos 1943 Rocket 3.9 16:17:19 10° NNE 16:19:23 12° NE 16:21:27 10° ENE
BREEZE-M DEB (TANK) 2.5 16:18:08 10° WNW 16:24:51 64° NNE 16:27:31 10° E
Cosmos 1980 3.8 16:20:16 10° S 16:25:47 57° ESE 16:31:19 10° NNE
ATLAS 5 CENTAUR R/B 1.5 16:25:48 10° SSW 16:28:14 34° SE 16:29:34 16° ENE
RESURS DK-1 3.1 16:28:10 10° SW 16:32:12 52° WNW 16:36:16 10° NNE
Cosmos 2297 4.4 16:27:50 10° N 16:32:52 31° NE 16:37:51 10° ESE
NOSS 0 Rocket 3.9 16:28:54 10° SSW 16:35:07 79° ESE 16:41:23 10° NNE
H-2A R/B 2.6 16:31:28 10° SSE 16:35:08 67° ENE 16:38:49 10° N
Cosmos 921 Rocket 4.1 16:32:59 10° N 16:36:24 23° ENE 16:39:51 10° ESE
Cosmos 1441 Rocket 4.2 16:34:01 10° NNE 16:37:10 24° ENE 16:40:15 10° SE
Feng Yun 1-1 Rocket 4.2 16:39:01 10° SSE 16:44:24 88° WSW 16:49:50 10° NNW
Cosmos 1782 Rocket 4.4 16:41:24 10° NNE 16:45:10 28° ENE 16:48:53 10° SE
COSMOS 2428 3.6 16:40:07 10° SW 16:45:34 47° WNW 16:51:05 10° NNE
Cosmos 1263 4.4 16:46:22 10° SSE 16:49:18 45° E 16:51:23 16° NNE
FALCON 9 DEB 3.6 16:47:55 10° SW 16:51:19 48° SE 16:53:03 24° ENE
Cosmos 1536 2.7 16:48:12 10° N 16:52:15 83° E 16:56:15 10° S
Cosmos 1862 Rocket 3.8 16:48:37 10° SSW 16:52:57 71° W 16:57:22 10° N
Cosmos 1703 Rocket 3.9 16:51:49 10° SSE 16:56:03 45° E 17:00:18 10° NNE
Genesis I 3.6 16:52:32 10° NNW 16:56:14 39° NE 16:58:25 20° ESE
ATLAS 2AS CENTAUR R/B 4.3 16:49:42 10° W 16:56:46 33° NNW 17:03:46 10° NNE
Okean O Rocket 4.3 16:54:32 10° SW 16:57:56 22° W 17:01:21 10° NW
SeaSat 1 4.4 17:02:16 12° NNE 17:02:16 12° NNE 17:03:14 10° NNE
Cosmos 1092 Rocket 4.0 16:55:45 10° S 17:02:00 69° E 17:08:14 10° NNE
Cosmos 1666 2.5 16:58:57 10° N 17:02:42 71° E 17:06:25 10° SSE
Lacrosse 5 rocket 2.4 16:59:43 10° W 17:03:44 38° NNW 17:06:10 19° NNE
Cosmos 2242 Rocket 3.7 17:00:19 10° S 17:04:53 85° W 17:09:30 10° N
Aureole 1 Rocket 2.0 17:07:25 10° SSW 17:10:22 73° ESE 17:11:22 39° NE
CZ-4 R/B 1.5 17:07:13 10° SE 17:10:56 44° ENE 17:14:38 10° N
SL-4 R/B 3.0 17:08:25 10° WNW 17:11:53 33° N 17:13:11 26° NNE
Cosmos 2278 Rocket 3.3 17:07:50 10° NW 17:13:15 47° WSW 17:18:37 10° S
Okean 1 3.8 17:09:55 10° SSE 17:13:35 37° E 17:13:59 36° ENE
FengYun 1-2 T 4.1 17:08:20 10° SSE 17:13:45 68° ENE 17:19:14 10° N
STARLINK-52 3.2 17:11:55 10° SW 17:15:23 62° SE 17:16:09 47° E
Okean-O 2.8 17:11:22 10° S 17:15:48 74° WSW 17:20:14 10° NNW
Shenzhou-11 Module 2.8 17:14:12 10° W 17:16:46 37° SSW 17:17:18 33° SSE
SMAP 4.5 17:13:37 10° SSW 17:18:00 40° W 17:22:24 10° NNW
NOAA 12 4.4 17:14:57 10° S 17:20:13 68° WSW 17:25:31 10° NNW
USA 215 4.0 17:17:57 19° NE 17:22:19 45° NNW 17:28:26 10° W
STARLINK-29 3.1 17:20:01 10° SW 17:23:33 81° SE 17:24:05 61° ENE
Cosmos 2369 Rocket 3.3 17:21:38 10° N 17:25:28 25° NE 17:25:28 25° NE
SL-16 R/B 2.2 17:22:27 10° S 17:28:04 64° ESE 17:30:56 29° NE
Cosmos 1743 2.6 17:24:33 10° N 17:28:21 59° ENE 17:32:11 10° SSE
Cosmos 1908 Rocket 4.1 17:24:10 10° NNW 17:28:30 58° W 17:32:46 10° S
USA 116 4.5 17:26:03 22° NNE 17:29:26 56° E 17:34:25 10° S
ISS -1.3 17:27:07 10° W 17:29:47 22° SW 17:32:26 10° S
COSMO-SKYMED 1 2.5 17:29:39 21° NNE 17:32:34 88° ESE 17:36:55 10° SSW
Cosmos 614 Rocket 3.8 17:27:48 10° S 17:32:52 69° ESE 17:34:59 35° NE
Cosmos 1174 4.0 17:28:22 10° SSW 17:33:30 73° ESE 17:34:31 51° NE
S3M 4.2 17:28:38 10° N 17:34:35 44° ENE 17:40:24 10° SSE
Cosmos 2333 Rocket 4.3 17:33:20 10° W 17:37:41 22° NW 17:42:03 10° N
Cosmos 2237 Rocket 3.2 17:33:21 10° SW 17:38:46 44° WNW 17:43:32 13° NNE
YAOGAN 1 2.4 17:34:32 10° SSE 17:38:51 74° ENE 17:43:10 10° N
STARLINK-60 3.6 17:35:45 10° WSW 17:38:58 52° NW 17:38:58 52° NW
Meteor 1-19 Rocket 4.2 17:36:32 10° S 17:41:52 52° E 17:42:50 46° ENE
Envisat 3.9 17:37:36 10° S 17:42:30 49° W 17:47:27 10° NNW
Cosmos 1428 Rocket 4.4 17:37:03 10° S 17:43:13 88° E 17:49:30 10° N
YAOGAN 6 3.3 17:39:54 10° S 17:43:21 53° W 17:46:53 10° NNW
Okean 1-7 3.3 17:39:26 10° SSW 17:43:44 67° W 17:46:42 20° N
Lacrosse 5 4.1 17:42:46 10° SSE 17:43:08 11° SSE 17:43:08 11° SSE
Cosmos 1553 Rocket 3.9 17:41:22 10° N 17:47:45 72° E 17:54:09 10° SSE
Cosmos 1140 Rocket 3.3 17:45:01 10° S 17:50:04 64° ESE 17:50:28 62° E
Cosmos 2219 Rocket 4.5 17:48:33 10° W 17:52:14 17° NW 17:55:56 10° N
Cosmos 407 Rocket 3.4 17:48:00 10° SSW 17:53:11 84° WNW 17:55:06 41° NNE
NOSS 3-1 (C) 4.4 17:52:18 10° NNW 17:59:10 42° NE 17:59:49 41° NE
Cosmos 1023 Rocket 4.2 17:55:40 10° SSW 18:00:44 82° ESE 18:01:02 77° ENE
Cosmos 2026 Rocket 4.4 17:55:35 10° SSW 18:01:33 60° WNW 18:07:34 10° N
Cosmos 489 Rocket 4.4 17:57:42 10° NNW 18:04:06 81° ENE 18:08:07 24° SSE
Cosmos 1943 Rocket 2.7 17:58:59 10° NNW 18:03:08 43° NNE 18:03:08 43° NNE
USA 229 DEB 4.2 18:01:02 10° NNW 18:07:49 45° NE 18:07:49 45° NE
USA 229 4.2 18:01:08 10° NNW 18:07:53 44° NE 18:07:53 44° NE
BREEZE-M R/B 4.3 18:06:39 10° WNW 18:09:04 28° NW 18:09:04 28° NW
CSL-04 Rocket 4.0 18:05:25 10° S 18:10:38 62° WSW 18:15:54 10° NNW
Cosmos 1867 3.4 18:05:13 10° NW 18:10:41 85° NE 18:10:41 85° NE
Cosmos 921 Rocket 4.5 18:10:51 10° NW 18:14:47 36° W 18:18:45 10° SSW
Cosmos 1655 Rocket 4.2 18:28:35 10° SSW 18:34:53 70° W 18:37:01 43° N
Lacrosse 5 rocket 4.2 18:41:12 10° NW 18:41:49 12° NW 18:41:49 12° NW
CZ-4 R/B 4.3 18:43:57 10° SW 18:46:12 15° W 18:48:28 10° NW
Cosmos 2369 Rocket 4.1 19:05:11 10° NNW 19:07:18 23° NW 19:07:18 23° NW
SL-16 R/B 4.1 19:08:05 10° WSW 19:12:39 24° NW 19:12:51 24° NW
Cosmos 2344 4.4 19:31:29 10° NW 19:40:45 80° WNW 19:40:45 80° WNW
